| time (UTC) | temp C | wind direction | speed KPH | gust KPH | rain 1hr cm | rain 24hr cm | rain mn cm | humidity % | barometer mb |
| 20260505182017 | 27 | 255 | 8.0 | 17.7 | 660.20 | 0.00 | 0.00 | ||
| 20260505181018 | 28 | 284 | 12.9 | 45.1 | 660.20 | 0.00 | 0.00 | ||
| 20260505173017 | 27 | 281 | 9.7 | 27.4 | 660.20 | 0.00 | 0.00 | ||
| 20260505172017 | 27 | 256 | 8.0 | 22.5 | 660.20 | 0.00 | 0.00 | ||
| 20260505164017 | 27 | 245 | 6.4 | 16.1 | 660.20 | 0.00 | 0.00 | ||
| 20260505153017 | 25 | 118 | 6.4 | 20.9 | 660.20 | 0.00 | 0.00 | ||
| 20260505151517 | 25 | 255 | 8.0 | 16.1 | 660.20 | 0.00 | 0.00 | ||
| 20260505125017 | 17 | 295 | 6.4 | 14.5 | 660.20 | 0.00 | 0.00 | ||
| 20260505124017 | 17 | 259 | 4.8 | 14.5 | 660.20 | 0.00 | 0.00 | ||
| 20260505122017 | 17 | 326 | 3.2 | 14.5 | 660.20 | 0.00 | 0.00 | ||
| 20260505115017 | 14 | 291 | 4.8 | 9.7 | 660.20 | 0.00 | 0.00 | ||
| 20260505111517 | 12 | 246 | 3.2 | 8.0 | 660.20 | 0.00 | 0.00 | ||
| 20260505111017 | 12 | 229 | 3.2 | 11.3 | 660.20 | 0.00 | 0.00 | ||
| 20260505102017 | 11 | 269 | 1.6 | 9.7 | 660.20 | 0.00 | 0.00 | ||
| 20260505093517 | 11 | 228 | 4.8 | 8.0 | 660.20 | 0.00 | 0.00 | ||
| 20260505093017 | 11 | 249 | 4.8 | 6.4 | 660.20 | 0.00 | 0.00 | ||
| 20260505092517 | 11 | 217 | 4.8 | 11.3 | 660.20 | 0.00 | 0.00 | ||
| 20260505092017 | 11 | 259 | 3.2 | 8.0 | 660.20 | 0.00 | 0.00 | ||
| 20260505091017 | 12 | 288 | 4.8 | 9.7 | 660.20 | 0.00 | 0.00 | ||
| 20260505090517 | 11 | 291 | 4.8 | 12.9 | 660.20 | 0.00 | 0.00 | ||
| 20260505085017 | 11 | 256 | 4.8 | 9.7 | 660.20 | 0.00 | 0.00 | ||
| 20260505084017 | 11 | 271 | 4.8 | 11.3 | 660.20 | 0.00 | 0.00 | ||
| 20260505083518 | 12 | 276 | 4.8 | 12.9 | 660.20 | 0.00 | 0.00 | ||
| 20260505082517 | 11 | 257 | 9.7 | 17.7 | 660.20 | 0.00 | 0.00 | ||
| 20260505081017 | 11 | 287 | 8.0 | 14.5 | 660.20 | 0.00 | 0.00 | ||
| 20260505075017 | 12 | 267 | 8.0 | 14.5 | 660.20 | 0.00 | 0.00 | ||
| 20260505074017 | 12 | 250 | 8.0 | 16.1 | 660.20 | 0.00 | 0.00 | ||
| 20260505073017 | 12 | 267 | 9.7 | 16.1 | 660.20 | 0.00 | 0.00 | ||
| 20260505072517 | 12 | 262 | 9.7 | 19.3 | 660.20 | 0.00 | 0.00 | ||
| 20260505072017 | 12 | 284 | 11.3 | 19.3 | 660.20 | 0.00 | 0.00 | ||
| 20260505071017 | 12 | 267 | 11.3 | 22.5 | 660.20 | 0.00 | 0.00 | ||
| 20260505070517 | 12 | 264 | 9.7 | 19.3 | 660.20 | 0.00 | 0.00 | ||
| 20260505065017 | 12 | 278 | 8.0 | 22.5 | 660.20 | 0.00 | 0.00 | ||
| 20260505064517 | 12 | 278 | 9.7 | 17.7 | 660.20 | 0.00 | 0.00 | ||
| 20260505062518 | 12 | 288 | 11.3 | 29.0 | 660.20 | 0.00 | 0.00 | ||
| 20260505062017 | 12 | 285 | 9.7 | 22.5 | 660.20 | 0.00 | 0.00 | ||
| 20260505061517 | 12 | 257 | 11.3 | 22.5 | 660.20 | 0.00 | 0.00 | ||
| 20260505061018 | 12 | 295 | 11.3 | 25.7 | 660.20 | 0.00 | 0.00 | ||
| 20260505060517 | 12 | 229 | 9.7 | 22.5 | 660.20 | 0.00 | 0.00 | ||
| 20260505060017 | 12 | 291 | 9.7 | 25.7 | 660.20 | 0.00 | 0.00 | ||
| 20260505055518 | 12 | 260 | 9.7 | 17.7 | 660.20 | 0.00 | 0.00 | ||
| 20260505054018 | 12 | 169 | 8.0 | 14.5 | 660.20 | 0.00 | 0.00 | ||
| 20260505052517 | 12 | 226 | 9.7 | 19.3 | 660.20 | 0.00 | 0.00 | ||
| 20260505051018 | 12 | 302 | 8.0 | 16.1 | 660.20 | 0.00 | 0.00 | ||
| 20260505040518 | 13 | 266 | 8.0 | 14.5 | 660.20 | 0.00 | 0.00 | ||
| 20260505035018 | 13 | 249 | 8.0 | 12.9 | 660.20 | 0.00 | 0.00 | ||
| 20260505033017 | 14 | 248 | 6.4 | 11.3 | 660.20 | 0.00 | 0.00 | ||
| 20260505032517 | 14 | 232 | 6.4 | 12.9 | 660.20 | 0.00 | 0.00 | ||
| 20260505032017 | 14 | 249 | 8.0 | 20.9 | 660.20 | 0.00 | 0.00 | ||
| 20260505024517 | 15 | 238 | 4.8 | 11.3 | 660.20 | 0.00 | 0.00 | ||
| 20260505024018 | 15 | 225 | 4.8 | 12.9 | 660.20 | 0.00 | 0.00 | ||
| 20260505022518 | 15 | 271 | 6.4 | 14.5 | 660.20 | 0.00 | 0.00 | ||
| 20260505021518 | 15 | 266 | 3.2 | 17.7 | 660.20 | 0.00 | 0.00 | ||
| 20260505021018 | 15 | 239 | 4.8 | 9.7 | 660.20 | 0.00 | 0.00 | ||
| 20260505020517 | 15 | 269 | 4.8 | 16.1 | 660.20 | 0.00 | 0.00 | ||
| 20260505015518 | 15 | 253 | 3.2 | 12.9 | 660.20 | 0.00 | 0.00 | ||
| 20260505015018 | 15 | 249 | 4.8 | 12.9 | 660.20 | 0.00 | 0.00 | ||
| 20260505012518 | 16 | 226 | 3.2 | 9.7 | 660.20 | 0.00 | 0.00 | ||
| 20260505012018 | 15 | 242 | 4.8 | 14.5 | 660.20 | 0.00 | 0.00 | ||
| 20260505011018 | 16 | 212 | 4.8 | 11.3 | 660.20 | 0.00 | 0.00 | ||
| 20260505002518 | 16 | 264 | 6.4 | 24.1 | 660.20 | 0.00 | 0.00 | ||
| 20260505002018 | 16 | 319 | 6.4 | 12.9 | 660.20 | 0.00 | 0.00 | ||
| 20260505001018 | 16 | 262 | 6.4 | 17.7 | 660.20 | 0.00 | 0.00 | ||
| 20260504235018 | 16 | 291 | 6.4 | 14.5 | 660.20 | 0.00 | 0.00 | ||
| 20260504233518 | 16 | 288 | 4.8 | 12.9 | 660.20 | 0.00 | 0.00 | ||
| 20260504224519 | 18 | 270 | 9.7 | 20.9 | 660.20 | 0.00 | 0.00 | ||
| 20260504224018 | 18 | 287 | 4.8 | 20.9 | 660.20 | 0.00 | 0.00 | ||
| 20260504223018 | 18 | 283 | 8.0 | 19.3 | 660.20 | 0.00 | 0.00 | ||
| 20260504222018 | 18 | 273 | 6.4 | 17.7 | 660.20 | 0.00 | 0.00 | ||
| 20260504215518 | 19 | 270 | 11.3 | 24.1 | 660.20 | 0.00 | 0.00 | ||
| 20260504213518 | 20 | 297 | 12.9 | 29.0 | 660.20 | 0.00 | 0.00 | ||
| 20260504213018 | 20 | 309 | 11.3 | 25.7 | 660.20 | 0.00 | 0.00 | ||
| 20260504212518 | 20 | 281 | 8.0 | 14.5 | 660.20 | 0.00 | 0.00 | ||
| 20260504211018 | 20 | 293 | 6.4 | 16.1 | 660.20 | 0.00 | 0.00 | ||
| 20260504205518 | 20 | 269 | 8.0 | 22.5 | 660.20 | 0.00 | 0.00 | ||
| 20260504202519 | 21 | 274 | 9.7 | 20.9 | 660.20 | 0.00 | 0.00 | ||
| 20260504202018 | 20 | 301 | 14.5 | 30.6 | 660.20 | 0.00 | 0.00 | ||
| 20260504201518 | 20 | 288 | 14.5 | 30.6 | 660.20 | 0.00 | 0.00 | ||
| 20260504201018 | 21 | 311 | 12.9 | 30.6 | 660.20 | 0.00 | 0.00 | ||
| 20260504200518 | 21 | 304 | 11.3 | 22.5 | 660.20 | 0.00 | 0.00 | ||
| 20260504200018 | 21 | 280 | 12.9 | 25.7 | 660.20 | 0.00 | 0.00 | ||
| 20260504195518 | 20 | 330 | 11.3 | 27.4 | 660.20 | 0.00 | 0.00 | ||
| 20260504194518 | 20 | 281 | 6.4 | 20.9 | 660.20 | 0.00 | 0.00 | ||
| 20260504193518 | 19 | 290 | 8.0 | 17.7 | 660.20 | 0.00 | 0.00 |